| time (UTC) | temp C | wind direction | speed KPH | gust KPH | rain 1hr cm | rain 24hr cm | rain mn cm | humidity % | barometer mb |
| 20260906234856 | 17 | 275 | 0.0 | 0.0 | 0.00 | 0.03 | 0.03 | 78 | 1016.7 |
| 20260906234355 | 17 | 282 | 0.0 | 0.0 | 0.00 | 0.03 | 0.03 | 78 | 1016.9 |
| 20260906233850 | 17 | 272 | 0.0 | 0.0 | 0.00 | 0.03 | 0.03 | 78 | 1016.8 |
| 20260906233349 | 17 | 282 | 1.6 | 1.6 | 0.00 | 0.03 | 0.03 | 79 | 1016.7 |
| 20260906232843 | 17 | 353 | 3.2 | 3.2 | 0.00 | 0.03 | 0.03 | 77 | 1016.7 |
| 20260906232338 | 17 | 269 | 1.6 | 3.2 | 0.00 | 0.03 | 0.03 | 77 | 1016.8 |
| 20260906231832 | 17 | 289 | 1.6 | 1.6 | 0.00 | 0.03 | 0.03 | 77 | 1016.7 |
| 20260906231328 | 17 | 284 | 0.0 | 0.0 | 0.00 | 0.03 | 0.03 | 79 | 1016.9 |
| 20260906230827 | 17 | 316 | 4.8 | 8.0 | 0.00 | 0.03 | 0.03 | 78 | 1016.9 |
| 20260906230323 | 17 | 263 | 0.0 | 0.0 | 0.00 | 0.03 | 0.03 | 79 | 1017.1 |
| 20260906225820 | 17 | 280 | 0.0 | 1.6 | 0.00 | 0.03 | 0.03 | 80 | 1017.2 |
| 20260906225316 | 17 | 295 | 3.2 | 3.2 | 0.00 | 0.03 | 0.03 | 80 | 1017.2 |
| 20260906224812 | 17 | 349 | 6.4 | 9.7 | 0.00 | 0.03 | 0.03 | 80 | 1017.1 |
| 20260906224308 | 17 | 337 | 3.2 | 4.8 | 0.00 | 0.03 | 0.03 | 81 | 1017.1 |
| 20260906223804 | 17 | 313 | 1.6 | 3.2 | 0.00 | 0.03 | 0.03 | 80 | 1017.1 |
| 20260906223300 | 17 | 335 | 0.0 | 1.6 | 0.00 | 0.03 | 0.03 | 79 | 1017.3 |
| 20260906222758 | 17 | 222 | 0.0 | 0.0 | 0.00 | 0.03 | 0.03 | 78 | 1017.4 |
| 20260906222257 | 17 | 160 | 1.6 | 1.6 | 0.00 | 0.03 | 0.03 | 78 | 1017.5 |
| 20260906221755 | 17 | 243 | 0.0 | 0.0 | 0.00 | 0.03 | 0.03 | 80 | 1017.4 |
| 20260906221249 | 17 | 254 | 3.2 | 4.8 | 0.00 | 0.03 | 0.03 | 78 | 1017.5 |
| 20260906220745 | 17 | 224 | 0.0 | 0.0 | 0.00 | 0.03 | 0.03 | 81 | 1017.5 |
| 20260906220240 | 17 | 282 | 3.2 | 3.2 | 0.00 | 0.03 | 0.03 | 80 | 1017.5 |
| 20260906215739 | 17 | 267 | 1.6 | 1.6 | 0.00 | 0.03 | 0.03 | 80 | 1017.5 |
| 20260906215233 | 17 | 233 | 4.8 | 4.8 | 0.00 | 0.03 | 0.03 | 79 | 1017.5 |
| 20260906214731 | 17 | 220 | 1.6 | 3.2 | 0.00 | 0.03 | 0.03 | 79 | 1017.5 |
| 20260906214226 | 17 | 193 | 1.6 | 1.6 | 0.00 | 0.03 | 0.03 | 80 | 1017.8 |
| 20260906213720 | 17 | 216 | 1.6 | 1.6 | 0.00 | 0.03 | 0.03 | 82 | 1017.4 |
| 20260906213220 | 17 | 256 | 0.0 | 1.6 | 0.00 | 0.03 | 0.03 | 81 | 1017.4 |
| 20260906212716 | 17 | 237 | 3.2 | 3.2 | 0.00 | 0.03 | 0.03 | 80 | 1017.4 |
| 20260906212213 | 17 | 224 | 0.0 | 0.0 | 0.00 | 0.03 | 0.03 | 82 | 1017.5 |
| 20260906211707 | 17 | 231 | 0.0 | 0.0 | 0.00 | 0.03 | 0.03 | 81 | 1017.5 |
| 20260906211203 | 17 | 273 | 1.6 | 1.6 | 0.00 | 0.03 | 0.03 | 81 | 1017.7 |
| 20260906210658 | 17 | 251 | 0.0 | 1.6 | 0.00 | 0.03 | 0.03 | 82 | 1017.5 |
| 20260906210157 | 17 | 238 | 0.0 | 0.0 | 0.00 | 0.03 | 0.03 | 81 | 1017.7 |
| 20260906205652 | 17 | 282 | 1.6 | 1.6 | 0.00 | 0.03 | 0.03 | 80 | 1017.5 |
| 20260906205148 | 17 | 272 | 1.6 | 1.6 | 0.00 | 0.03 | 0.03 | 79 | 1017.5 |
| 20260906204643 | 17 | 259 | 0.0 | 0.0 | 0.00 | 0.03 | 0.03 | 80 | 1017.5 |
| 20260906204138 | 17 | 12 | 4.8 | 8.0 | 0.00 | 0.03 | 0.03 | 79 | 1017.5 |
| 20260906203637 | 17 | 260 | 0.0 | 0.0 | 0.00 | 0.03 | 0.03 | 80 | 1017.6 |
| 20260906203132 | 17 | 265 | 0.0 | 1.6 | 0.00 | 0.03 | 0.03 | 79 | 1017.5 |
| 20260906202629 | 17 | 292 | 0.0 | 0.0 | 0.00 | 0.03 | 0.03 | 80 | 1017.5 |
| 20260906202128 | 16 | 240 | 0.0 | 0.0 | 0.00 | 0.03 | 0.03 | 80 | 1017.5 |
| 20260906201624 | 17 | 275 | 4.8 | 4.8 | 0.00 | 0.03 | 0.03 | 80 | 1017.6 |
| 20260906201122 | 16 | 19 | 1.6 | 1.6 | 0.00 | 0.03 | 0.03 | 79 | 1017.6 |
| 20260906200619 | 16 | 56 | 3.2 | 3.2 | 0.00 | 0.03 | 0.03 | 79 | 1017.7 |
| 20260906200115 | 17 | 66 | 3.2 | 3.2 | 0.00 | 0.03 | 0.03 | 78 | 1017.7 |
| 20260906195610 | 16 | 143 | 1.6 | 3.2 | 0.00 | 0.03 | 0.03 | 78 | 1017.7 |
| 20260906195106 | 16 | 133 | 1.6 | 3.2 | 0.00 | 0.03 | 0.03 | 78 | 1017.8 |
| 20260906194602 | 16 | 102 | 4.8 | 4.8 | 0.00 | 0.03 | 0.03 | 79 | 1017.8 |
| 20260906194057 | 16 | 127 | 1.6 | 3.2 | 0.00 | 0.03 | 0.03 | 79 | 1017.7 |
| 20260906193557 | 16 | 82 | 4.8 | 4.8 | 0.00 | 0.03 | 0.03 | 77 | 1017.7 |
| 20260906193052 | 16 | 117 | 6.4 | 8.0 | 0.00 | 0.03 | 0.03 | 79 | 1017.9 |
| 20260906192548 | 16 | 88 | 3.2 | 3.2 | 0.00 | 0.03 | 0.03 | 78 | 1017.8 |
| 20260906192047 | 16 | 103 | 3.2 | 3.2 | 0.00 | 0.03 | 0.03 | 79 | 1018.0 |
| 20260906191542 | 16 | 75 | 4.8 | 4.8 | 0.00 | 0.03 | 0.03 | 79 | 1018.2 |
| 20260906191041 | 16 | 67 | 3.2 | 4.8 | 0.00 | 0.03 | 0.03 | 80 | 1018.2 |
| 20260906190540 | 16 | 77 | 6.4 | 9.7 | 0.00 | 0.03 | 0.03 | 80 | 1018.3 |
| 20260906190036 | 16 | 31 | 4.8 | 4.8 | 0.00 | 0.03 | 0.03 | 79 | 1018.4 |
| 20260906185534 | 16 | 69 | 6.4 | 8.0 | 0.00 | 0.03 | 0.03 | 80 | 1018.4 |
| 20260906185034 | 16 | 49 | 6.4 | 8.0 | 0.00 | 0.03 | 0.03 | 81 | 1018.4 |
| 20260906184529 | 16 | 96 | 6.4 | 8.0 | 0.00 | 0.03 | 0.03 | 81 | 1018.5 |
| 20260906184024 | 16 | 52 | 8.0 | 11.3 | 0.00 | 0.03 | 0.03 | 82 | 1018.4 |
| 20260906183521 | 16 | 90 | 8.0 | 11.3 | 0.00 | 0.03 | 0.03 | 81 | 1018.3 |
| 20260906183016 | 16 | 85 | 12.9 | 14.5 | 0.00 | 0.03 | 0.03 | 82 | 1018.0 |
| 20260906182511 | 16 | 69 | 8.0 | 11.3 | 0.00 | 0.03 | 0.03 | 84 | 1018.3 |
| 20260906182007 | 16 | 83 | 8.0 | 9.7 | 0.00 | 0.03 | 0.03 | 84 | 1018.3 |
| 20260906181502 | 15 | 52 | 14.5 | 16.1 | 0.00 | 0.03 | 0.03 | 85 | 1018.2 |
| 20260906180958 | 15 | 124 | 12.9 | 16.1 | 0.00 | 0.03 | 0.03 | 87 | 1018.4 |
| 20260906180452 | 15 | 59 | 14.5 | 20.9 | 0.00 | 0.03 | 0.03 | 88 | 1018.4 |
| 20260906175951 | 15 | 57 | 16.1 | 17.7 | 0.00 | 0.03 | 0.03 | 87 | 1018.5 |
| 20260906175445 | 15 | 70 | 6.4 | 9.7 | 0.00 | 0.03 | 0.03 | 88 | 1018.6 |
| 20260906174943 | 15 | 19 | 9.7 | 12.9 | 0.00 | 0.03 | 0.03 | 88 | 1018.6 |
| 20260906174437 | 14 | 45 | 8.0 | 9.7 | 0.00 | 0.03 | 0.03 | 88 | 1018.9 |
| 20260906173933 | 14 | 16 | 4.8 | 8.0 | 0.00 | 0.03 | 0.03 | 88 | 1019.0 |
| 20260906173428 | 14 | 1 | 8.0 | 9.7 | 0.00 | 0.03 | 0.03 | 88 | 1019.1 |
| 20260906172927 | 14 | 30 | 8.0 | 9.7 | 0.00 | 0.03 | 0.03 | 89 | 1018.9 |
| 20260906172424 | 13 | 355 | 6.4 | 9.7 | 0.00 | 0.03 | 0.03 | 89 | 1018.8 |
| 20260906171919 | 13 | 17 | 12.9 | 16.1 | 0.00 | 0.03 | 0.03 | 89 | 1018.9 |
| 20260906171413 | 13 | 28 | 17.7 | 22.5 | 0.00 | 0.03 | 0.03 | 89 | 1018.6 |
| 20260906170909 | 13 | 18 | 17.7 | 24.1 | 0.00 | 0.03 | 0.03 | 89 | 1018.8 |
| 20260906170405 | 13 | 26 | 14.5 | 20.9 | 0.00 | 0.03 | 0.03 | 90 | 1018.5 |
| 20260906165901 | 12 | 25 | 14.5 | 17.7 | 0.00 | 0.03 | 0.03 | 91 | 1019.0 |
| 20260906165401 | 12 | 99 | 0.0 | 1.6 | 0.00 | 0.03 | 0.03 | 92 | 1019.8 |
| 20260906164856 | 12 | 263 | 0.0 | 1.6 | 0.00 | 0.03 | 0.03 | 92 | 1019.8 |
| 20260906164354 | 12 | 152 | 0.0 | 1.6 | 0.00 | 0.03 | 0.03 | 92 | 1020.0 |
| 20260906163851 | 12 | 259 | 0.0 | 1.6 | 0.00 | 0.03 | 0.03 | 92 | 1020.2 |
| 20260906163347 | 12 | 279 | 0.0 | 1.6 | 0.00 | 0.03 | 0.03 | 93 | 1020.1 |
| 20260906162845 | 12 | 249 | 0.0 | 0.0 | 0.00 | 0.03 | 0.03 | 93 | 1020.1 |
| 20260906162343 | 12 | 282 | 3.2 | 4.8 | 0.00 | 0.03 | 0.03 | 93 | 1020.0 |
| 20260906161839 | 12 | 330 | 3.2 | 4.8 | 0.00 | 0.03 | 0.03 | 93 | 1020.1 |
| 20260906161338 | 12 | 313 | 1.6 | 3.2 | 0.00 | 0.03 | 0.03 | 93 | 1020.1 |
| 20260906160837 | 12 | 95 | 1.6 | 1.6 | 0.00 | 0.03 | 0.03 | 93 | 1020.2 |
| 20260906160331 | 12 | 302 | 3.2 | 3.2 | 0.00 | 0.03 | 0.03 | 92 | 1020.0 |
| 20260906155829 | 12 | 266 | 0.0 | 1.6 | 0.00 | 0.03 | 0.03 | 92 | 1020.1 |
| 20260906155323 | 12 | 261 | 0.0 | 0.0 | 0.00 | 0.03 | 0.03 | 92 | 1020.1 |
| 20260906154820 | 12 | 158 | 0.0 | 0.0 | 0.00 | 0.03 | 0.03 | 92 | 1020.1 |
| 20260906154314 | 12 | 233 | 0.0 | 0.0 | 0.00 | 0.03 | 0.03 | 92 | 1020.2 |
| 20260906153812 | 12 | 218 | 1.6 | 3.2 | 0.00 | 0.03 | 0.03 | 92 | 1020.4 |
| 20260906153307 | 12 | 334 | 1.6 | 1.6 | 0.00 | 0.03 | 0.03 | 92 | 1020.3 |
| 20260906152802 | 12 | 308 | 0.0 | 0.0 | 0.00 | 0.03 | 0.03 | 92 | 1020.4 |
| 20260906152257 | 12 | 336 | 0.0 | 1.6 | 0.00 | 0.03 | 0.03 | 92 | 1020.4 |
| 20260906151756 | 12 | 317 | 1.6 | 1.6 | 0.00 | 0.03 | 0.03 | 92 | 1020.7 |
| 20260906151252 | 12 | 359 | 1.6 | 4.8 | 0.18 | 0.03 | 0.03 | 92 | 1020.6 |
| 20260906150747 | 12 | 353 | 8.0 | 12.9 | 0.18 | 0.03 | 0.03 | 91 | 1020.7 |
| 20260906150243 | 12 | 302 | 3.2 | 4.8 | 0.00 | 0.00 | 0.00 | 91 | 1020.3 |
| 20260906145742 | 12 | 160 | 1.6 | 1.6 | 0.00 | 0.00 | 0.00 | 91 | 1020.6 |
| 20260906145240 | 12 | 307 | 0.0 | 1.6 | 0.00 | 0.00 | 0.00 | 91 | 1020.7 |
| 20260906144736 | 12 | 283 | 1.6 | 3.2 | 0.00 | 0.00 | 0.00 | 91 | 1020.9 |
| 20260906144230 | 12 | 15 | 1.6 | 4.8 | 0.00 | 0.00 | 0.00 | 91 | 1020.8 |
| 20260906143730 | 12 | 349 | 1.6 | 1.6 | 0.00 | 0.00 | 0.00 | 91 | 1020.8 |
| 20260906143227 | 12 | 282 | 6.4 | 8.0 | 0.00 | 0.00 | 0.00 | 92 | 1020.6 |
| 20260906142726 | 12 | 18 | 3.2 | 3.2 | 0.00 | 0.00 | 0.00 | 92 | 1020.8 |
| 20260906142222 | 12 | 328 | 4.8 | 9.7 | 0.00 | 0.00 | 0.00 | 91 | 1020.7 |
| 20260906141721 | 12 | 126 | 1.6 | 3.2 | 0.00 | 0.00 | 0.00 | 91 | 1020.9 |
| 20260906141216 | 12 | 172 | 1.6 | 3.2 | 0.00 | 0.00 | 0.00 | 91 | 1020.6 |
| 20260906140715 | 12 | 337 | 3.2 | 3.2 | 0.00 | 0.00 | 0.00 | 90 | 1020.7 |
| 20260906140210 | 13 | 117 | 3.2 | 3.2 | 0.00 | 0.00 | 0.00 | 90 | 1020.7 |
| 20260906135707 | 13 | 45 | 3.2 | 3.2 | 0.00 | 0.00 | 0.00 | 89 | 1020.8 |
| 20260906135203 | 13 | 210 | 0.0 | 1.6 | 0.00 | 0.00 | 0.00 | 89 | 1020.6 |
| 20260906134658 | 13 | 261 | 0.0 | 0.0 | 0.00 | 0.00 | 0.00 | 88 | 1020.6 |
| 20260906134153 | 13 | 246 | 0.0 | 0.0 | 0.00 | 0.00 | 0.00 | 87 | 1020.4 |
| 20260906133649 | 13 | 243 | 0.0 | 0.0 | 0.00 | 0.00 | 0.00 | 87 | 1020.3 |
| 20260906133144 | 13 | 244 | 0.0 | 0.0 | 0.00 | 0.00 | 0.00 | 87 | 1020.4 |
| 20260906132639 | 13 | 294 | 1.6 | 1.6 | 0.00 | 0.00 | 0.00 | 86 | 1020.1 |
| 20260906132135 | 13 | 252 | 0.0 | 0.0 | 0.00 | 0.00 | 0.00 | 86 | 1020.2 |
| 20260906131630 | 13 | 246 | 0.0 | 0.0 | 0.00 | 0.00 | 0.00 | 86 | 1020.2 |
| 20260906131125 | 13 | 243 | 0.0 | 1.6 | 0.00 | 0.00 | 0.00 | 86 | 1020.1 |
| 20260906130620 | 13 | 187 | 0.0 | 0.0 | 0.00 | 0.00 | 0.00 | 86 | 1020.0 |
| 20260906130115 | 13 | 315 | 4.8 | 4.8 | 0.00 | 0.00 | 0.00 | 86 | 1020.1 |
| 20260906125607 | 13 | 282 | 0.0 | 0.0 | 0.00 | 0.00 | 0.00 | 86 | 1020.1 |
| 20260906125106 | 13 | 342 | 0.0 | 0.0 | 0.00 | 0.00 | 0.00 | 87 | 1020.2 |
| 20260906124602 | 13 | 278 | 0.0 | 1.6 | 0.00 | 0.00 | 0.00 | 87 | 1020.2 |
| 20260906124057 | 13 | 284 | 1.6 | 3.2 | 0.00 | 0.00 | 0.00 | 87 | 1020.4 |
| 20260906123556 | 13 | 320 | 1.6 | 1.6 | 0.00 | 0.00 | 0.00 | 87 | 1020.4 |
| 20260906123051 | 13 | 19 | 3.2 | 3.2 | 0.00 | 0.00 | 0.00 | 87 | 1020.4 |
| 20260906122550 | 13 | 278 | 1.6 | 1.6 | 0.00 | 0.00 | 0.00 | 86 | 1020.6 |
| 20260906122047 | 14 | 322 | 3.2 | 4.8 | 0.00 | 0.00 | 0.00 | 86 | 1020.6 |
| 20260906121542 | 14 | 167 | 1.6 | 3.2 | 0.00 | 0.00 | 0.00 | 85 | 1020.2 |
| 20260906121039 | 15 | 350 | 8.0 | 12.9 | 0.00 | 0.00 | 0.00 | 85 | 1020.1 |
| 20260906120533 | 15 | 335 | 11.3 | 14.5 | 0.00 | 0.00 | 0.00 | 84 | 1020.1 |
| 20260906120031 | 15 | 19 | 12.9 | 16.1 | 0.00 | 0.00 | 0.00 | 83 | 1019.9 |
| 20260906115525 | 15 | 46 | 11.3 | 12.9 | 0.00 | 0.00 | 0.00 | 84 | 1019.6 |
| 20260906115020 | 15 | 30 | 17.7 | 22.5 | 0.00 | 0.00 | 0.00 | 83 | 1019.8 |
| 20260906114514 | 15 | 49 | 16.1 | 22.5 | 0.00 | 0.00 | 0.00 | 84 | 1019.7 |
| 20260906114010 | 15 | 17 | 8.0 | 9.7 | 0.00 | 0.00 | 0.00 | 83 | 1019.9 |
| 20260906113509 | 15 | 22 | 12.9 | 16.1 | 0.00 | 0.00 | 0.00 | 84 | 1019.9 |
| 20260906113004 | 15 | 65 | 12.9 | 16.1 | 0.00 | 0.00 | 0.00 | 84 | 1019.8 |
| 20260906112458 | 15 | 28 | 11.3 | 14.5 | 0.00 | 0.00 | 0.00 | 83 | 1019.9 |
| 20260906111955 | 15 | 21 | 14.5 | 17.7 | 0.00 | 0.00 | 0.00 | 83 | 1020.1 |
| 20260906111449 | 15 | 32 | 11.3 | 14.5 | 0.00 | 0.00 | 0.00 | 83 | 1020.1 |
| 20260906110944 | 15 | 8 | 14.5 | 20.9 | 0.00 | 0.00 | 0.00 | 82 | 1020.1 |
| 20260906110439 | 15 | 16 | 9.7 | 11.3 | 0.00 | 0.00 | 0.00 | 82 | 1020.1 |
| 20260906105938 | 15 | 25 | 11.3 | 14.5 | 0.00 | 0.00 | 0.00 | 82 | 1020.2 |
| 20260906105434 | 15 | 320 | 4.8 | 8.0 | 0.00 | 0.00 | 0.00 | 83 | 1020.6 |
| 20260906104930 | 15 | 341 | 3.2 | 3.2 | 0.00 | 0.00 | 0.00 | 84 | 1020.3 |
| 20260906104428 | 15 | 328 | 1.6 | 3.2 | 0.00 | 0.00 | 0.00 | 83 | 1020.4 |
| 20260906103928 | 15 | 33 | 6.4 | 9.7 | 0.00 | 0.00 | 0.00 | 82 | 1020.6 |
| 20260906103426 | 15 | 50 | 14.5 | 22.5 | 0.00 | 0.00 | 0.00 | 81 | 1020.3 |
| 20260906102921 | 14 | 33 | 12.9 | 14.5 | 0.00 | 0.00 | 0.00 | 84 | 1020.4 |
| 20260906102421 | 14 | 1 | 4.8 | 4.8 | 0.00 | 0.00 | 0.00 | 86 | 1020.4 |
| 20260906101916 | 14 | 356 | 4.8 | 4.8 | 0.00 | 0.00 | 0.00 | 86 | 1020.6 |
| 20260906101411 | 14 | 20 | 8.0 | 9.7 | 0.00 | 0.00 | 0.00 | 86 | 1020.6 |
| 20260906100907 | 14 | 325 | 6.4 | 9.7 | 0.00 | 0.00 | 0.00 | 86 | 1020.6 |
| 20260906100406 | 14 | 10 | 11.3 | 12.9 | 0.00 | 0.00 | 0.00 | 85 | 1020.3 |
| 20260906095900 | 14 | 2 | 9.7 | 12.9 | 0.00 | 0.00 | 0.00 | 85 | 1020.3 |
| 20260906095356 | 14 | 10 | 4.8 | 4.8 | 0.00 | 0.00 | 0.00 | 85 | 1020.2 |
| 20260906094850 | 14 | 38 | 4.8 | 8.0 | 0.00 | 0.00 | 0.00 | 85 | 1020.3 |
| 20260906094345 | 14 | 318 | 4.8 | 4.8 | 0.00 | 0.00 | 0.00 | 85 | 1020.4 |
| 20260906093841 | 14 | 334 | 6.4 | 9.7 | 0.00 | 0.00 | 0.00 | 85 | 1020.6 |
| 20260906093337 | 14 | 8 | 4.8 | 8.0 | 0.00 | 0.00 | 0.00 | 86 | 1020.6 |
| 20260906092832 | 13 | 19 | 8.0 | 11.3 | 0.00 | 0.00 | 0.00 | 86 | 1020.2 |
| 20260906092331 | 13 | 18 | 4.8 | 9.7 | 0.00 | 0.00 | 0.00 | 87 | 1020.1 |
| 20260906091827 | 13 | 350 | 8.0 | 12.9 | 0.00 | 0.00 | 0.00 | 87 | 1020.1 |
| 20260906091323 | 13 | 19 | 8.0 | 9.7 | 0.00 | 0.00 | 0.00 | 87 | 1020.1 |
| 20260906090820 | 13 | 25 | 9.7 | 12.9 | 0.00 | 0.00 | 0.00 | 86 | 1020.2 |
| 20260906090318 | 13 | 4 | 14.5 | 16.1 | 0.00 | 0.00 | 0.00 | 87 | 1020.3 |
| 20260906085818 | 13 | 1 | 11.3 | 12.9 | 0.00 | 0.00 | 0.00 | 87 | 1020.3 |
| 20260906085311 | 13 | 348 | 8.0 | 9.7 | 0.00 | 0.00 | 0.00 | 87 | 1020.3 |
| 20260906084807 | 13 | 16 | 9.7 | 14.5 | 0.00 | 0.00 | 0.00 | 86 | 1020.3 |
| 20260906084306 | 13 | 355 | 9.7 | 11.3 | 0.00 | 0.00 | 0.00 | 87 | 1020.2 |
| 20260906083801 | 13 | 358 | 11.3 | 16.1 | 0.00 | 0.00 | 0.00 | 88 | 1020.6 |
| 20260906083257 | 13 | 337 | 4.8 | 8.0 | 0.00 | 0.00 | 0.00 | 88 | 1020.8 |
| 20260906082751 | 13 | 311 | 3.2 | 4.8 | 0.00 | 0.00 | 0.00 | 87 | 1020.8 |
| 20260906082246 | 13 | 32 | 9.7 | 16.1 | 0.00 | 0.00 | 0.00 | 86 | 1021.0 |
| 20260906081742 | 13 | 288 | 1.6 | 1.6 | 0.00 | 0.00 | 0.00 | 88 | 1021.3 |
| 20260906081237 | 13 | 32 | 3.2 | 3.2 | 0.00 | 0.00 | 0.00 | 89 | 1021.3 |
| 20260906080734 | 13 | 236 | 1.6 | 1.6 | 0.00 | 0.00 | 0.00 | 89 | 1021.5 |
| 20260906080230 | 13 | 265 | 0.0 | 0.0 | 0.00 | 0.00 | 0.00 | 89 | 1021.4 |
| 20260906075723 | 13 | 235 | 1.6 | 1.6 | 0.00 | 0.00 | 0.00 | 89 | 1021.5 |
| 20260906075218 | 13 | 304 | 1.6 | 3.2 | 0.00 | 0.00 | 0.00 | 89 | 1021.5 |
| 20260906074713 | 13 | 284 | 0.0 | 1.6 | 0.00 | 0.00 | 0.00 | 89 | 1021.5 |
| 20260906074212 | 13 | 295 | 1.6 | 1.6 | 0.00 | 0.00 | 0.00 | 88 | 1021.8 |
| 20260906073707 | 13 | 194 | 3.2 | 3.2 | 0.00 | 0.00 | 0.00 | 88 | 1021.7 |
| 20260906073203 | 13 | 296 | 1.6 | 3.2 | 0.00 | 0.00 | 0.00 | 87 | 1021.5 |
| 20260906072658 | 13 | 185 | 0.0 | 0.0 | 0.00 | 0.00 | 0.00 | 87 | 1021.5 |
| 20260906072154 | 13 | 217 | 1.6 | 1.6 | 0.00 | 0.00 | 0.00 | 86 | 1021.5 |
| 20260906071650 | 13 | 288 | 3.2 | 4.8 | 0.00 | 0.00 | 0.00 | 85 | 1021.4 |
| 20260906071149 | 13 | 341 | 4.8 | 8.0 | 0.00 | 0.00 | 0.00 | 85 | 1021.3 |
| 20260906070646 | 14 | 27 | 6.4 | 8.0 | 0.00 | 0.00 | 0.00 | 85 | 1021.7 |
| 20260906070141 | 13 | 355 | 4.8 | 9.7 | 0.00 | 0.00 | 0.00 | 84 | 1021.4 |
| 20260906065641 | 13 | 32 | 4.8 | 4.8 | 0.00 | 0.00 | 0.00 | 85 | 1021.5 |
| 20260906065136 | 13 | 3 | 4.8 | 8.0 | 0.00 | 0.00 | 0.00 | 85 | 1021.7 |
| 20260906064632 | 13 | 264 | 0.0 | 0.0 | 0.00 | 0.00 | 0.00 | 85 | 1021.7 |
| 20260906064127 | 13 | 9 | 3.2 | 4.8 | 0.00 | 0.00 | 0.00 | 85 | 1021.5 |
| 20260906063622 | 13 | 343 | 1.6 | 3.2 | 0.00 | 0.00 | 0.00 | 85 | 1021.8 |
| 20260906063118 | 13 | 341 | 3.2 | 3.2 | 0.00 | 0.00 | 0.00 | 85 | 1022.1 |
| 20260906062613 | 13 | 292 | 1.6 | 3.2 | 0.00 | 0.00 | 0.00 | 85 | 1022.0 |
| 20260906062112 | 13 | 267 | 0.0 | 1.6 | 0.00 | 0.00 | 0.00 | 86 | 1022.0 |
| 20260906061609 | 13 | 265 | 0.0 | 1.6 | 0.00 | 0.00 | 0.00 | 86 | 1022.0 |
| 20260906061108 | 14 | 11 | 11.3 | 14.5 | 0.00 | 0.00 | 0.00 | 85 | 1022.1 |
| 20260906060605 | 13 | 0 | 1.6 | 3.2 | 0.00 | 0.00 | 0.00 | 84 | 1021.8 |
| 20260906055557 | 14 | 8 | 11.3 | 17.7 | 0.00 | 0.79 | 0.79 | 82 | 1021.8 |
| 20260906055053 | 13 | 344 | 3.2 | 4.8 | 0.00 | 0.79 | 0.79 | 85 | 1021.8 |
| 20260906054553 | 13 | 261 | 3.2 | 4.8 | 0.00 | 0.79 | 0.79 | 87 | 1022.0 |
| 20260906054048 | 13 | 303 | 1.6 | 3.2 | 0.00 | 0.79 | 0.79 | 88 | 1022.2 |
| 20260906053544 | 13 | 347 | 3.2 | 8.0 | 0.00 | 0.79 | 0.79 | 89 | 1022.4 |
| 20260906053039 | 13 | 270 | 3.2 | 3.2 | 0.00 | 0.79 | 0.79 | 89 | 1022.4 |
| 20260906052535 | 13 | 294 | 0.0 | 1.6 | 0.00 | 0.79 | 0.79 | 89 | 1022.1 |
| 20260906052032 | 13 | 337 | 3.2 | 4.8 | 0.00 | 0.79 | 0.79 | 89 | 1021.8 |
| 20260906051527 | 13 | 247 | 0.0 | 0.0 | 0.00 | 0.79 | 0.79 | 89 | 1021.5 |
| 20260906051023 | 13 | 284 | 0.0 | 1.6 | 0.00 | 0.79 | 0.79 | 90 | 1021.4 |
| 20260906050518 | 13 | 325 | 3.2 | 4.8 | 0.00 | 0.79 | 0.79 | 91 | 1021.2 |
| 20260906050012 | 13 | 283 | 0.0 | 0.0 | 0.00 | 0.79 | 0.79 | 90 | 1021.4 |
| 20260906045510 | 13 | 3 | 1.6 | 3.2 | 0.00 | 0.79 | 0.79 | 90 | 1021.5 |
| 20260906045007 | 13 | 280 | 0.0 | 0.0 | 0.00 | 0.79 | 0.79 | 90 | 1021.3 |
| 20260906044502 | 13 | 334 | 3.2 | 3.2 | 0.00 | 0.79 | 0.79 | 91 | 1021.4 |
| 20260906043957 | 13 | 257 | 0.0 | 1.6 | 0.00 | 0.79 | 0.79 | 91 | 1021.4 |
| 20260906043453 | 13 | 264 | 0.0 | 0.0 | 0.13 | 0.79 | 0.79 | 90 | 1021.7 |
| 20260906042949 | 13 | 255 | 0.0 | 0.0 | 0.13 | 0.79 | 0.79 | 89 | 1021.7 |
| 20260906042448 | 13 | 267 | 0.0 | 0.0 | 0.00 | 0.76 | 0.76 | 89 | 1021.7 |
| 20260906041948 | 13 | 305 | 0.0 | 1.6 | 0.00 | 0.76 | 0.76 | 88 | 1021.2 |
| 20260906041444 | 13 | 296 | 0.0 | 0.0 | 0.00 | 0.76 | 0.76 | 88 | 1021.5 |
| 20260906040943 | 13 | 280 | 1.6 | 1.6 | 0.00 | 0.76 | 0.76 | 87 | 1021.4 |
| 20260906040438 | 13 | 348 | 8.0 | 11.3 | 0.00 | 0.76 | 0.76 | 87 | 1020.7 |
| 20260906035934 | 13 | 25 | 8.0 | 11.3 | 0.00 | 0.76 | 0.76 | 88 | 1020.6 |
| 20260906035429 | 13 | 14 | 9.7 | 12.9 | 0.00 | 0.76 | 0.76 | 88 | 1020.6 |
| 20260906034924 | 13 | 2 | 8.0 | 11.3 | 0.00 | 0.76 | 0.76 | 89 | 1020.3 |
| 20260906034419 | 13 | 0 | 6.4 | 8.0 | 0.00 | 0.76 | 0.76 | 88 | 1020.1 |
| 20260906033915 | 13 | 13 | 9.7 | 11.3 | 0.00 | 0.76 | 0.76 | 88 | 1020.4 |
| 20260906033415 | 13 | 2 | 11.3 | 16.1 | 0.00 | 0.76 | 0.76 | 89 | 1020.3 |
| 20260906032910 | 13 | 13 | 9.7 | 11.3 | 0.00 | 0.76 | 0.76 | 89 | 1020.6 |
| 20260906032407 | 13 | 22 | 9.7 | 11.3 | 0.00 | 0.76 | 0.76 | 89 | 1020.4 |
| 20260906031901 | 14 | 7 | 4.8 | 4.8 | 0.00 | 0.76 | 0.76 | 89 | 1020.6 |
| 20260906031356 | 14 | 12 | 9.7 | 12.9 | 0.00 | 0.76 | 0.76 | 88 | 1020.9 |
| 20260906030851 | 14 | 19 | 6.4 | 8.0 | 0.18 | 0.76 | 0.76 | 89 | 1020.8 |
| 20260906030346 | 14 | 5 | 4.8 | 4.8 | 1.55 | 0.76 | 0.76 | 87 | 1020.9 |
| 20260906025841 | 15 | 352 | 3.2 | 3.2 | 3.00 | 0.74 | 0.74 | 84 | 1020.9 |
| 20260906025335 | 16 | 22 | 11.3 | 14.5 | 1.63 | 0.51 | 0.51 | 77 | 1020.7 |
| 20260906024834 | 17 | 245 | 1.6 | 1.6 | 0.00 | 0.23 | 0.23 | 69 | 1022.0 |
| 20260906024333 | 16 | 231 | 4.8 | 8.0 | 0.00 | 0.23 | 0.23 | 70 | 1021.8 |
| 20260906023829 | 16 | 265 | 1.6 | 1.6 | 0.00 | 0.23 | 0.23 | 69 | 1020.4 |
| 20260906023325 | 16 | 353 | 3.2 | 4.8 | 0.00 | 0.23 | 0.23 | 68 | 1019.6 |
| 20260906022820 | 16 | 0 | 8.0 | 9.7 | 0.00 | 0.23 | 0.23 | 68 | 1019.1 |
| 20260906022315 | 16 | 357 | 8.0 | 9.7 | 0.00 | 0.23 | 0.23 | 68 | 1018.8 |
| 20260906021811 | 17 | 359 | 6.4 | 8.0 | 0.00 | 0.23 | 0.23 | 68 | 1019.1 |
| 20260906021310 | 16 | 12 | 9.7 | 11.3 | 0.00 | 0.23 | 0.23 | 68 | 1018.9 |
| 20260906020804 | 16 | 351 | 8.0 | 11.3 | 0.00 | 0.23 | 0.23 | 69 | 1019.0 |
| 20260906020259 | 16 | 11 | 4.8 | 4.8 | 0.00 | 0.23 | 0.23 | 69 | 1019.1 |
| 20260906015759 | 16 | 7 | 9.7 | 11.3 | 0.00 | 0.23 | 0.23 | 68 | 1019.1 |
| 20260906015257 | 17 | 9 | 8.0 | 11.3 | 0.00 | 0.23 | 0.23 | 68 | 1019.2 |
| 20260906014752 | 17 | 8 | 6.4 | 8.0 | 0.00 | 0.23 | 0.23 | 67 | 1019.1 |
| 20260906014248 | 17 | 13 | 8.0 | 9.7 | 0.00 | 0.23 | 0.23 | 66 | 1019.2 |
| 20260906013743 | 17 | 12 | 6.4 | 8.0 | 0.00 | 0.23 | 0.23 | 64 | 1019.1 |
| 20260906013243 | 17 | 9 | 11.3 | 14.5 | 0.00 | 0.23 | 0.23 | 64 | 1018.9 |
| 20260906012739 | 17 | 14 | 11.3 | 14.5 | 0.00 | 0.23 | 0.23 | 64 | 1019.4 |
| 20260906012234 | 17 | 4 | 4.8 | 4.8 | 0.00 | 0.23 | 0.23 | 63 | 1019.2 |
| 20260906011729 | 18 | 5 | 8.0 | 9.7 | 0.00 | 0.23 | 0.23 | 62 | 1019.5 |
| 20260906011228 | 18 | 21 | 6.4 | 8.0 | 0.00 | 0.23 | 0.23 | 61 | 1019.2 |
| 20260906010724 | 18 | 358 | 9.7 | 11.3 | 0.00 | 0.23 | 0.23 | 61 | 1019.1 |
| 20260906010221 | 18 | 348 | 6.4 | 8.0 | 0.00 | 0.23 | 0.23 | 60 | 1019.4 |
| 20260906005721 | 19 | 9 | 8.0 | 9.7 | 0.00 | 0.23 | 0.23 | 59 | 1019.1 |
| 20260906005214 | 19 | 350 | 12.9 | 14.5 | 0.00 | 0.23 | 0.23 | 58 | 1019.1 |
| 20260906004713 | 19 | 2 | 11.3 | 12.9 | 0.00 | 0.23 | 0.23 | 58 | 1019.4 |
| 20260906004209 | 19 | 15 | 8.0 | 8.0 | 0.00 | 0.23 | 0.23 | 57 | 1019.2 |
| 20260906003704 | 19 | 19 | 16.1 | 17.7 | 0.00 | 0.23 | 0.23 | 57 | 1019.1 |
| 20260906003200 | 19 | 16 | 8.0 | 11.3 | 0.00 | 0.23 | 0.23 | 57 | 1019.0 |
| 20260906002659 | 20 | 11 | 11.3 | 14.5 | 0.00 | 0.23 | 0.23 | 56 | 1019.0 |
| 20260906002154 | 20 | 4 | 6.4 | 9.7 | 0.00 | 0.23 | 0.23 | 56 | 1019.4 |
| 20260906001650 | 20 | 27 | 1.6 | 4.8 | 0.00 | 0.23 | 0.23 | 56 | 1019.2 |
| 20260906001149 | 21 | 348 | 1.6 | 3.2 | 0.00 | 0.23 | 0.23 | 54 | 1019.4 |
| 20260906000645 | 21 | 8 | 4.8 | 8.0 | 0.00 | 0.23 | 0.23 | 52 | 1019.5 |
| 20260906000140 | 22 | 274 | 1.6 | 3.2 | 0.00 | 0.23 | 0.23 | 52 | 1019.4 |
| 20260905235639 | 22 | 15 | 12.9 | 17.7 | 0.00 | 0.23 | 0.23 | 51 | 1019.4 |
| 20260905235135 | 21 | 15 | 12.9 | 14.5 | 0.00 | 0.23 | 0.23 | 50 | 1019.4 |